Theta_e
318 312 309 309 298 295 292 296 301 303 303 305 308 310 309 310 311 304 325 336 341 341 343 343 347 348 348 348 348 346 346 345 343 346 345 342 341 339 338 339 342 343 345 346 345 344 343 343 344
312 315 311 303 293 289 289 297 301 303 306 308 309 306 309 310 321 321 327 339 342 341 341 342 344 347 348 348 347 346 345 346 342 343 343 342 341 340 339 338 340 340 341 342 343 342 341 341 343
314 313 304 297 292 290 291 297 302 305 308 307 304 308 311 314 321 321 331 341 341 339 340 340 344 347 348 348 347 345 344 345 344 341 341 341 340 339 339 340 338 340 338 338 340 340 340 340 340
309 305 304 295 291 296 295 300 304 302 304 305 305 307 314 324 324 327 336 340 339 337 339 341 344 347 348 348 347 346 344 344 343 340 340 340 340 343 342 342 342 340 340 340 338 338 339 339 337
306 302 296 291 292 294 297 302 303 301 300 301 303 303 311 325 327 328 335 339 336 335 338 340 343 345 346 347 347 346 345 344 343 341 340 341 340 341 340 341 341 338 339 339 338 337 337 336 335
299 299 291 288 292 295 297 302 302 299 300 300 303 309 312 326 325 326 337 338 337 335 338 339 336 339 342 345 346 345 345 343 343 340 339 340 339 340 339 339 340 338 337 337 335 336 335 334 333
299 296 291 291 294 295 298 301 301 298 300 299 302 307 315 323 325 327 337 338 337 337 336 337 337 336 336 338 340 342 343 342 341 341 340 338 338 337 336 335 335 336 336 335 333 334 333 331 331
301 298 292 292 293 294 299 300 301 299 299 304 306 304 310 320 327 328 336 337 335 335 335 334 334 336 335 334 333 336 339 339 339 337 333 331 331 331 330 328 332 335 334 334 333 332 331 329 328
305 295 292 295 295 296 299 297 300 300 302 302 306 308 317 327 328 326 333 334 332 332 333 333 333 333 333 333 330 331 333 333 332 330 327 325 326 324 324 325 329 334 335 333 331 330 328 326 324
297 294 296 300 298 297 299 299 300 297 298 300 309 321 325 326 325 323 327 329 331 328 332 332 332 331 332 335 331 332 332 333 331 328 326 326 324 324 323 321 324 328 329 331 329 327 326 323 318
297 295 297 298 301 302 300 298 299 296 295 301 306 318 322 322 323 323 323 328 329 331 333 333 331 330 331 331 330 330 331 333 331 327 325 328 326 322 320 318 318 317 318 319 321 319 318 318 318
295 299 298 301 301 301 299 300 299 298 299 302 309 321 321 321 322 323 323 325 328 332 333 335 333 331 331 331 330 329 330 330 332 332 329 329 325 320 319 317 317 316 316 315 316 316 317 317 318
296 295 299 299 300 299 302 298 298 298 300 304 309 321 320 321 322 325 326 326 327 329 331 334 334 334 332 331 329 329 327 329 329 333 332 330 325 320 319 318 317 317 316 315 314 315 316 316 316
297 296 297 297 297 298 299 295 296 299 300 304 312 316 318 320 322 324 326 326 326 328 330 333 334 334 333 331 331 331 330 330 329 328 330 331 325 322 320 318 317 318 316 315 314 315 314 314 315
297 294 295 293 296 295 296 293 295 297 300 299 303 307 314 319 320 321 326 327 329 329 330 332 333 334 333 332 331 330 331 331 330 330 328 328 325 323 320 319 317 317 314 314 313 313 313 313 313
293 292 288 293 296 295 295 290 297 298 297 297 297 297 301 309 316 320 321 323 330 330 328 330 333 334 334 333 333 332 331 330 330 330 331 327 325 324 320 318 317 317 314 312 312 311 311 310 311
288 284 287 290 295 294 292 289 295 295 294 293 293 294 295 298 301 309 316 322 325 330 329 329 330 332 333 334 333 333 333 330 329 329 329 329 325 324 320 318 317 316 313 311 311 310 310 308 308
285 284 286 287 291 291 289 291 293 294 293 293 292 293 293 296 299 303 308 316 323 328 330 330 329 329 332 333 333 333 332 331 329 329 328 328 328 324 320 318 317 316 313 311 309 309 309 309 309
289 287 286 287 292 291 290 290 293 293 292 292 292 293 294 295 298 300 305 311 318 322 328 329 328 328 329 330 330 330 329 330 329 328 328 328 328 326 321 318 316 314 312 311 309 308 307 306 307
288 286 285 288 291 288 288 289 291 293 293 294 294 294 294 295 297 297 300 305 312 317 323 328 329 328 328 328 329 330 330 330 330 330 328 328 327 326 324 319 316 314 311 309 308 306 304 305 307
286 286 285 287 288 288 285 284 288 291 293 294 294 295 296 296 297 297 297 300 302 308 314 320 328 329 329 328 328 325 328 328 327 327 327 327 327 326 325 322 320 315 313 311 308 307 307 305 306
285 289 289 288 283 280 284 278 284 288 290 292 294 294 295 296 295 297 297 296 296 298 301 302 307 323 329 328 326 325 324 323 327 327 328 327 326 325 324 323 321 318 316 313 312 309 308 306 304
287 290 289 287 284 281 281 279 282 285 287 291 293 293 293 294 296 297 300 301 302 303 303 304 304 302 307 328 327 326 324 325 323 327 326 326 325 325 323 323 322 318 316 313 310 308 306 308 306
291 288 287 285 282 277 281 280 280 284 288 289 290 293 294 297 297 298 299 301 303 306 306 307 306 303 302 305 325 325 324 323 322 324 324 324 323 323 322 321 321 319 316 313 311 310 308 307 307
289 283 277 276 276 276 280 279 282 287 290 291 292 293 295 296 296 298 298 299 301 301 306 306 304 300 301 301 312 323 323 324 323 323 324 323 321 318 320 320 319 318 317 315 313 310 308 307 306
286 284 279 273 274 276 279 278 283 289 289 290 292 294 294 295 297 297 298 299 300 301 305 305 305 306 308 308 310 317 321 320 322 323 324 323 322 321 321 320 319 318 317 315 313 312 310 307 306
286 283 286 279 270 274 278 281 287 290 290 290 288 292 294 295 296 297 298 299 299 300 301 305 305 306 307 309 310 310 314 316 318 320 321 321 319 317 318 318 317 316 317 316 313 311 307 305 304
287 289 281 280 270 270 276 277 281 285 287 287 289 290 292 294 295 295 296 297 298 299 300 303 304 304 303 304 305 306 308 310 312 312 311 310 310 310 312 312 312 311 310 310 310 307 306 304 303
285 284 284 283 280 274 272 277 284 288 289 289 289 289 291 294 294 294 295 295 296 297 298 299 300 301 302 302 301 303 304 304 303 304 305 304 305 305 305 307 308 307 307 306 305 304 304 302 302
287 285 284 279 276 277 279 280 287 288 289 289 288 290 291 293 294 294 294 294 294 294 295 296 296 296 298 300 298 297 298 299 298 298 299 299 299 299 299 299 299 299 298 298 297 297 299 298 297
Wind_Speed
8 8 1 6 6 6 3 2 5 6 6 2 4 12 9 3 3 5 5 16 17 13 10 8 11 12 13 14 13 13 13 14 16 16 19 19 19 17 17 17 16 17 18 19 19 19 17 17 17
5 5 6 2 5 3 5 4 7 3 5 7 8 5 7 3 3 9 9 16 16 13 9 8 11 12 12 13 13 14 13 14 15 16 17 17 19 17 17 16 15 17 17 17 17 18 16 17 18
5 1 4 4 3 3 5 2 9 5 7 5 3 5 4 2 3 7 13 18 17 12 9 10 11 12 11 14 13 13 14 13 14 15 16 15 16 15 15 16 16 16 17 17 17 17 17 17 18
3 5 4 4 2 7 6 7 8 4 6 5 4 7 5 3 10 8 16 17 15 13 10 10 13 13 11 12 13 12 13 13 14 15 15 14 13 16 16 15 17 18 18 18 18 17 16 17 18
4 3 1 2 2 2 4 7 8 6 4 1 4 3 4 3 8 12 15 16 15 11 9 8 12 12 12 11 12 12 12 13 13 14 14 14 14 16 15 14 18 17 16 19 17 16 14 14 16
3 3 3 4 3 2 3 8 9 6 5 1 7 6 2 6 8 8 14 14 14 13 10 8 10 11 11 10 11 12 13 12 12 13 13 14 14 14 14 11 16 18 16 16 15 14 13 13 15
4 4 5 2 7 3 5 6 8 7 7 2 4 5 4 5 7 8 14 13 13 12 10 7 6 8 10 10 10 11 13 12 11 12 12 12 11 13 12 11 13 16 16 15 14 12 12 12 12
2 3 2 3 8 4 5 3 4 6 2 2 4 6 5 5 9 8 13 12 12 10 10 8 6 6 6 5 9 9 11 11 10 11 11 10 10 10 11 8 9 12 15 13 12 10 10 9 8
1 3 3 4 6 6 5 4 3 3 7 4 4 3 8 12 10 8 12 10 7 8 9 9 8 6 6 6 5 8 8 10 11 9 10 8 4 5 7 6 7 10 14 13 10 8 7 5 5
4 3 5 5 6 7 7 8 7 5 5 4 6 7 10 10 9 8 10 10 10 7 9 9 9 8 7 6 6 5 6 5 5 5 6 4 6 5 5 6 8 5 8 11 8 5 3 4 3
4 4 4 7 3 10 10 5 5 10 2 7 13 11 10 8 8 9 8 10 10 9 6 10 10 9 9 6 4 2 3 4 4 7 5 4 5 4 4 3 3 3 5 2 2 1 1 2 1
1 4 2 3 5 6 8 7 6 6 6 7 15 17 10 9 10 10 9 10 11 11 8 6 7 9 9 7 6 4 4 4 4 6 6 4 4 5 4 3 4 4 2 3 2 1 1 3 4
3 1 4 2 6 5 5 3 3 5 5 7 13 13 12 11 9 7 7 6 9 10 10 7 8 6 8 10 6 6 5 5 5 6 5 4 5 5 4 4 4 4 3 4 3 3 2 2 2
4 4 3 3 3 4 6 1 2 5 6 10 15 12 12 13 12 7 8 9 9 10 11 11 9 8 6 7 10 7 7 6 5 4 6 6 5 5 6 5 5 4 4 4 4 4 3 2 2
6 5 3 2 2 1 3 1 6 2 9 11 11 9 10 13 12 16 15 15 15 13 13 13 12 10 8 6 6 5 5 6 7 7 7 7 6 6 6 5 4 4 5 6 3 3 2 2 2
7 5 4 2 6 1 3 6 7 8 10 10 10 9 9 12 12 13 14 15 17 15 15 13 12 12 11 9 5 3 4 5 5 6 7 7 6 6 5 4 4 4 4 4 3 3 2 3 3
1 5 4 1 5 3 2 6 3 4 7 8 8 9 9 9 9 10 10 13 15 17 16 15 13 14 12 10 7 6 4 4 4 5 5 9 7 6 5 5 5 5 4 3 3 3 3 3 3
5 5 4 6 5 3 3 8 6 3 5 8 8 8 8 10 12 10 11 9 12 15 16 16 13 13 12 7 7 5 5 4 4 6 6 9 8 8 6 5 6 5 5 4 3 3 3 3 4
7 6 6 0 2 4 6 7 9 7 5 8 9 8 8 9 10 9 9 9 8 10 15 16 16 14 11 9 9 8 9 8 5 5 8 9 9 9 7 4 5 5 6 6 5 4 5 4 2
3 6 4 2 0 2 3 9 9 7 8 9 10 9 10 6 7 9 9 9 10 9 12 15 16 15 12 10 8 7 7 5 7 6 6 7 9 10 9 7 5 6 4 5 6 5 2 3 4
3 6 5 5 2 3 3 8 7 9 7 6 9 8 9 11 10 9 9 11 7 8 9 9 14 15 14 12 7 3 3 2 5 5 6 8 9 9 10 10 8 7 7 7 5 5 7 4 3
5 4 7 9 4 4 3 7 7 5 9 7 12 10 11 10 4 5 6 4 4 1 3 1 4 7 12 13 11 14 10 9 7 7 6 6 6 7 9 9 9 8 7 7 7 5 4 4 4
6 7 7 4 4 2 3 1 9 5 4 8 11 10 9 8 8 8 7 6 4 3 2 2 2 2 4 12 13 12 11 8 4 6 8 8 7 8 7 8 9 8 6 6 7 5 6 5 4
8 9 10 6 4 2 6 6 7 5 9 6 3 5 8 9 8 6 5 5 4 4 3 3 4 6 4 5 10 12 12 10 6 6 7 6 5 6 7 7 7 7 7 7 7 8 8 8 7
8 7 4 3 2 7 3 4 8 6 9 8 8 6 7 8 7 6 6 5 4 2 2 2 3 6 6 6 7 11 11 10 11 8 7 7 5 3 8 10 8 7 9 8 7 7 7 8 7
10 9 8 9 6 5 3 9 8 10 5 4 6 7 7 7 7 7 5 4 4 5 3 2 2 2 2 5 4 6 8 5 4 7 5 7 7 7 6 7 6 7 6 7 8 6 6 7 6
5 5 6 8 3 4 6 8 9 9 8 6 4 6 7 8 8 8 8 7 5 3 3 0 2 3 5 6 5 5 5 6 4 4 4 4 4 4 5 5 6 6 7 7 7 5 5 5 4
5 8 3 3 5 3 6 7 8 4 11 5 7 10 8 6 7 7 6 6 5 5 3 3 3 4 4 5 5 5 6 6 7 5 6 6 5 4 5 5 4 5 4 3 4 3 3 3 3
4 4 2 5 6 7 1 9 8 11 8 10 10 6 9 9 7 5 5 4 4 3 4 4 4 6 6 6 5 7 8 10 8 8 7 7 7 7 7 6 5 6 5 5 5 5 4 2 1
3 5 6 7 4 3 4 12 3 5 3 6 3 7 6 5 6 6 6 5 4 4 4 4 4 5 6 6 8 8 8 8 8 8 8 7 8 7 7 7 8 7 6 6 6 5 4 3 3
Wind_Direction
321 303 17 36 44 64 264 360 125 68 55 39 86 89 113 80 73 151 100 119 126 126 127 124 119 109 108 115 111 97 92 93 90 80 91 89 85 87 84 79 71 69 75 79 83 82 77 73 67
330 324 40 68 80 43 278 154 102 88 120 84 54 101 52 87 49 110 108 129 123 127 126 127 123 114 115 126 116 107 102 98 96 87 87 91 92 89 86 85 84 81 79 79 80 82 76 70 63
322 306 74 96 136 199 184 123 131 103 97 90 80 67 90 79 86 129 127 130 127 127 128 131 123 114 108 132 122 114 109 103 101 95 89 85 89 99 98 90 90 88 87 87 86 86 82 68 60
9 10 10 100 269 285 141 161 126 95 25 72 104 64 51 300 153 147 135 130 123 127 128 131 126 118 113 128 123 118 116 108 104 103 96 93 89 97 84 93 89 78 78 83 84 82 74 64 61
23 61 73 315 254 304 80 145 122 106 135 137 110 102 81 33 127 127 125 125 120 123 126 131 125 122 121 118 132 128 116 114 109 108 100 93 87 84 86 84 87 85 79 81 83 84 73 67 65
7 99 90 247 236 181 86 148 128 128 136 124 82 107 136 136 123 144 118 123 126 130 126 129 127 126 122 116 123 134 123 119 115 112 105 97 92 86 89 94 103 96 89 87 90 79 69 57 55
137 99 203 232 181 168 153 137 128 148 125 186 122 79 162 128 169 134 122 123 128 129 125 125 129 128 126 126 123 131 134 130 125 115 104 95 89 92 84 80 97 95 97 94 93 80 71 59 49
134 115 202 229 189 185 173 88 102 108 113 190 115 141 184 196 158 133 124 127 130 135 131 136 135 131 127 131 128 128 140 132 121 110 108 105 102 100 96 98 109 105 104 100 95 87 80 65 43
15 82 216 233 165 176 163 114 34 136 104 57 33 119 156 150 139 123 127 125 125 134 144 147 147 149 142 135 135 126 129 129 123 122 128 118 111 105 104 111 107 102 114 111 106 103 98 82 47
113 139 222 215 153 163 159 139 148 100 107 68 60 58 123 132 147 158 142 144 155 156 149 162 156 158 152 150 147 141 139 144 138 144 157 135 132 124 113 110 96 92 98 108 109 119 90 354 350
199 202 302 341 75 141 157 143 159 119 178 183 156 156 149 150 162 169 149 156 157 168 142 174 166 162 161 148 158 152 151 150 156 164 173 136 130 118 119 104 89 73 73 48 67 57 335 308 180
238 252 341 7 3 124 154 137 142 146 199 194 162 161 154 163 176 180 168 164 156 169 157 185 170 173 165 152 163 171 166 167 173 181 182 143 133 139 147 142 160 166 162 182 193 212 243 72 68
187 246 58 16 57 66 126 109 145 153 138 111 141 159 163 172 180 177 167 170 154 186 183 185 193 193 154 159 170 172 182 172 184 164 179 155 150 156 159 171 170 189 170 184 184 194 135 83 58
175 118 107 63 34 46 111 88 128 201 146 113 151 168 174 179 186 175 189 189 183 180 190 186 192 208 186 168 174 178 183 173 174 176 173 171 167 163 175 177 183 193 185 185 173 182 167 187 166
124 99 75 157 182 135 110 2 233 181 161 145 166 182 189 199 187 192 196 193 192 193 177 189 189 200 211 199 185 186 169 170 169 182 185 179 175 185 168 182 180 183 183 172 170 182 165 173 208
120 86 127 276 149 288 110 248 252 220 162 179 186 199 197 214 205 204 190 190 184 186 182 180 186 191 198 203 194 191 183 175 181 167 182 185 179 181 168 174 184 179 167 164 164 170 179 203 208
40 161 150 276 206 114 140 250 297 170 170 201 208 216 219 225 219 207 208 191 173 183 181 182 182 187 193 199 196 199 196 181 183 168 166 187 180 182 173 174 183 172 170 170 175 194 161 201 232
162 141 159 182 223 128 151 252 273 320 173 225 239 248 230 218 225 206 199 201 181 177 180 180 183 188 191 186 195 196 191 189 186 184 177 180 189 179 179 182 181 171 164 180 182 188 209 194 210
151 166 142 76 263 142 208 257 256 260 223 244 242 238 248 235 229 215 207 190 186 173 173 181 180 190 185 190 191 194 205 203 202 192 184 183 184 191 178 187 182 172 179 190 182 172 205 236 200
133 153 130 89 290 150 199 260 257 242 228 201 221 233 235 243 243 222 210 195 180 181 180 179 185 185 190 189 198 201 198 202 204 207 200 196 189 192 188 179 189 183 169 185 194 177 181 223 190
176 162 170 149 134 5 21 295 253 252 241 227 218 209 215 215 228 222 198 199 181 185 182 177 186 187 190 188 185 176 174 164 188 196 207 207 192 189 188 191 188 183 183 197 184 178 182 192 221
143 137 126 121 101 209 128 272 294 243 247 210 233 218 221 219 191 189 169 130 152 137 57 191 179 185 195 182 185 193 197 200 200 202 201 205 197 190 188 193 191 185 189 193 199 183 187 153 200
190 138 132 118 96 82 263 55 267 278 247 244 233 231 225 233 190 140 120 115 94 70 349 342 310 209 191 195 195 192 197 198 173 175 182 197 196 192 188 194 193 186 188 195 181 172 204 195 193
148 82 44 46 75 303 232 174 268 216 214 239 208 244 181 144 126 123 110 95 78 36 3 306 272 267 238 195 198 195 195 191 175 171 182 189 193 196 191 187 188 189 189 189 194 201 199 206 218
101 87 42 23 353 223 7 241 241 254 241 198 192 174 161 148 143 131 120 115 94 50 335 321 300 256 247 217 199 188 190 194 189 169 182 181 179 178 201 192 194 191 199 201 191 193 199 199 204
167 162 158 181 195 229 9 240 256 245 237 222 185 184 155 142 133 133 124 95 76 35 12 23 7 18 354 201 178 191 190 189 190 171 176 186 188 195 192 191 190 197 186 193 193 199 203 193 204
221 196 167 106 32 68 231 293 288 258 248 221 172 127 167 166 165 149 145 144 139 102 19 275 69 56 50 72 86 82 117 140 149 134 145 158 150 159 171 179 192 196 204 201 193 195 193 174 192
161 154 103 7 121 253 280 270 239 278 252 251 215 203 197 189 175 168 165 155 149 150 141 99 112 94 75 70 72 75 69 83 71 63 75 80 77 79 90 91 101 91 88 107 147 139 130 179 200
127 178 122 120 150 166 216 260 224 212 212 233 246 199 191 196 193 168 141 138 147 121 119 117 105 107 92 86 84 90 79 74 75 72 67 69 69 63 68 67 73 75 77 76 82 75 72 72 37
137 184 152 158 238 217 163 254 245 136 129 180 216 197 189 175 155 148 152 151 145 140 109 96 80 85 90 92 86 81 80 83 84 80 77 75 74 60 65 68 68 61 59 55 62 71 59 43 15